sat.trackr.live / text

‹ back to catalog

STARLINK-3687

NORAD 52110 · 2022-029Y

PAYLOAD ACTIVE UNKNOWN

§ Identity

Operator
Country
US
Launch date
2022-03-19
Launch site
AFETR
Launch vehicle
Mass (kg)
RCS (m²)

Purposes: comms

External: N2YO · Heavens-Above · Gunter

§ Orbital elements

Epoch: 2026-09-20T01:10:01.618176Z

Period
93.90 min
Inclination
53.1584°
Eccentricity
0.0001079
Mean motion
15.33531355 rev/d
Perigee alt
464.5 km
Apogee alt
466.0 km
Semi-major
6,843.4 km
B*
3.2439e-5
RAAN
271.9722°
Arg perigee
92.5514°
Mean anomaly
267.5612°
Rev number
25,032

§ Raw data

STARLINK-36871 52110U 22029Y   26263.04862984  .00000694  00000+0  32439-4 0  99972 52110  53.1584 271.9722 0001079  92.5514 267.5612 15.33531355250325

JSON: /api/v1/satellites/52110 · /tle

For live sub-satellite position, see the globe view (requires WebGL).

§ Visibility from observer

Set your observer location to see the next 7 days of passes ≥ 10°. The values pass through the URL so the page stays shareable.

No JS? Fill the form by hand. The geolocation button needs JavaScript.